CZ-6A DEB, 55225

Orbit data source: Space-Track

CZ-6A DEB, 55225 is space debris in SSO originally from a launch on Fri, 11 Nov 2022 UTC launched from the Taiyaun Space Center, China (TSC). Debris objects in space refer to the collection of defunct objects orbiting the Earth. Examples of debris include non-operational satellites, rocket bodies, and fragments generated from explosions, collisions, or faulty payload assembly.

Loading next visibility...
Identifier
55225, 2022-151WS
Orbit
SSO
Country
Flag of CNCN / PRC
Related business
Manufacturer
SAST
Mission
Spacecraft
Bus & Motor
Unknown
Mass
Unknown
Launch date (UTC)
2022-11-11 (4 years ago)
Launch vehicle
Unknown
Launch site
Taiyaun Space Center, China (TSC)
Object type
Payload
Rocket body
Debris
Shape & HBR
Unknown shape, 0.1 m
Radar Cross Section
Small (<0.1 m²)

Expand to show TLE details & history
Last TLE update: 1 day ago

TLE from 1 day ago
0 CZ-6A DEB
1 55225U 22151WS  26235.64995986  .00008674  00000-0  16283-2 0  9991
2 55225  98.7267 306.9623 0122533 159.4143 201.2055 14.60201165193691
Epoch: 2026-08-23T15:35Z
TLE epoch observation values (Epoch: 2026-08-23T15:35:56.531Z)
Latitude
-0.00005°
Longitude
101.03379°
Altitude
776.42 km
Speed
7.423 km/s
True Right ascension
20h 27m 50s
True Declination
0° 00' 00"
Sunlit
Object was in full shadow at epoch
Visualization orbit readout
Latitude
Unknown
Longitude
Unknown
Altitude
Unknown
Speed
Unknown
Apparent Right ascension
Unknown
Apparent Declination
Unknown
Sunlit
N/A
Visualization observer readout
Local Sidereal Time
12:11:06
Azimuth
Unknown
Elevation
Unknown
Doppler factor
Unknown
Orbital elements
Apogee altitude
776.233 km
Perigee altitude
603.026 km
Semi-major axis
7,067.767 km
Eccentricity
0.01225
Inclination
98.7267°
RAAN
306.9623°
Arg. of periapsis
159.4143°
True anomaly
200.70477°
Mean anomaly
201.2055°
Eccentric anomaly
200.95442°
Mean motion
3.65275 °/min
Orbital period
98.56 mins
BSTAR
0.0016283
Loading maneuver chart data...
Computing Atmospheric mass density...
Loading historical data...
Loading historical data...
Loading historical data...
Loading historical data...
Loading historical data...
Loading historical data...
Loading historical data...

Documentation

Showing up to 5 results
|